GW0458 Weather Reports


time (UTC)temp
F
wind
direction
speed
knots
gust
knots
rain 1hr
in
rain 24hr
in
rain mn
in
humidity
%
barometer
mb
20260506134846 53 186 0.9 0.9 0.00 0.00 0.00 99 1027.0
20260506131845 53 196 0.0 0.0 0.00 0.00 0.00 99 1026.7
20260506124841 53 193 0.0 0.9 0.00 0.00 0.00 98 1026.9
20260506121837 53 194 0.0 0.0 0.00 0.00 0.00 97 1026.4
20260506114833 53 195 0.0 0.0 0.00 0.00 0.00 96 1026.3
20260506111829 53 203 0.0 0.0 0.00 0.00 0.00 95 1026.3
20260506104829 53 208 0.0 0.0 0.00 0.00 0.00 94 1026.0
20260506101825 53 206 0.0 0.0 0.00 0.00 0.00 93 1026.0
20260506094820 54 208 0.0 0.9 0.00 0.00 0.00 94 1025.7
20260506091818 54 206 0.0 0.0 0.00 0.00 0.00 94 1025.1
20260506084817 54 204 0.0 0.0 0.00 0.00 0.00 94 1025.1
20260506081816 54 189 0.0 0.9 0.00 0.00 0.00 93 1025.1
20260506071807 53 199 0.0 0.0 0.00 0.00 0.00 97 1024.9
20260506061807 54 208 0.0 0.0 0.00 0.00 0.00 94 1023.9
20260506044758 56 197 0.0 0.9 0.00 0.00 0.00 93 1023.3
20260506041756 58 201 0.0 0.0 0.00 0.00 0.00 89 1023.4
20260506034756 58 207 0.0 0.0 0.00 0.00 0.00 88 1023.2
20260506031755 59 197 0.0 0.0 0.00 0.00 0.00 85 1022.6
20260506024755 60 207 0.0 0.0 0.00 0.00 0.00 84 1022.6
20260506021755 62 206 0.0 0.0 0.00 0.00 0.00 82 1022.6
20260506014754 64 210 0.0 0.0 0.00 0.00 0.00 77 1022.1
20260506011753 64 207 0.0 0.0 0.00 0.00 0.00 77 1022.3
20260506004752 63 201 0.9 0.9 0.00 0.00 0.00 77 1022.9
20260506001748 64 216 0.0 0.9 0.00 0.00 0.00 76 1022.9
20260505234743 63 65 0.0 0.9 0.00 0.00 0.00 75 1023.2
20260505231743 64 221 0.9 0.9 0.00 0.00 0.00 75 1023.5
20260505224743 63 198 0.9 0.9 0.00 0.00 0.00 77 1023.7
20260505221742 61 190 0.9 0.9 0.00 0.00 0.00 80 1023.8
20260505214738 62 210 0.0 0.0 0.00 0.00 0.00 79 1024.1
20260505211737 60 208 0.0 0.9 0.00 0.00 0.00 81 1024.0
20260505204737 60 207 0.0 0.0 0.00 0.00 0.00 84 1024.3
20260505201735 59 215 0.9 0.9 0.00 0.00 0.00 84 1024.1
20260505194730 59 212 0.0 0.0 0.00 0.00 0.00 85 1024.1
20260505191725 58 211 0.0 0.0 0.00 0.00 0.00 85 1024.0
20260505184720 58 208 0.0 0.0 0.00 0.00 0.00 87 1024.1
20260505181719 58 206 0.0 0.0 0.00 0.00 0.00 87 1024.0
20260505174717 57 176 0.9 0.9 0.00 0.00 0.00 88 1023.9
20260505171712 57 206 0.0 0.0 0.00 0.00 0.00 88 1024.0
20260505164712 56 207 0.0 0.0 0.00 0.00 0.00 90 1023.9
20260505161708 56 206 0.0 0.0 0.00 0.00 0.00 90 1023.7
20260505151702 55 206 0.0 0.0 0.00 0.00 0.00 93 1023.4